Starlink 31057

operational
NORAD ID: 58545 Int'l Des: 2023-192 Owner: SPXS Country: US Constellation: starlink
LEOCIRCULAR

About Starlink 31057

Description loading...

Live Position

Loading 3D Globe...

Upcoming Passes

Altitude History

Altitude vs Time

uPlot chart will show altitude changes over time

Two-Line Element Set

1 58545U 23192Q 25352.64189126 .00008912 00000-0 31259-3 0 9991
2 58545 53.1576 79.4076 0001401 109.3462 250.7690 15.30208371113576
Epoch: Dec 18, 2025 • Age: 11 hours

Current Status

Altitude 475.8 km
Velocity 7.63 km/s
Sub-Earth Point 23.60°N, 29.32°W
Launch Date Dec 8, 2023
Age 2 years
Type internet

Technical Details

Classification Payload
Mass 730.00 kg
Dry Mass 700.00 kg
Total Mass 730.00 kg
Length 0.30 m
Diameter 4.10 m
Span 29.00 m
Shape Box + pan
Manufacturer SPXS
Bus Type Starlink V2M
Phase Status In Orbit
Owner/State SPXS/US

Large Constellations

Loading constellations...